Regional Weather Roundup
Issued by NWS Huntsville, AL

Current Version | Previous Version | Graphics & Text | Print | Product List | Glossary On
Versions: 1 2 3 4 5 6 7 8 9 10 11 12 13 14 15 16 17 18 19 20 21 22 23 24 25 26 27 28 29 30 31 32 33 34 35 36 37 38 39 40 41 42 43 44 45 46 47 48 49 50
000
ASUS44 KHUN 140710
RWRHUN

WEATHER ROUNDUP FOR THE TENNESSEE VALLEY
NATIONAL WEATHER SERVICE HUNTSVILLE AL
100 AM CST THU NOV 14 2019

ALZ001>004-140800-
NORTHWEST ALABAMA

CITY           SKY/WX    TMP DP  RH WIND       PRES   REMARKS
SHOALS AIRPORT FAIR      32  29  88 CALM      30.26R
$$

ALZ005>007-016-140800-
NORTH CENTRAL ALABAMA

CITY           SKY/WX    TMP DP  RH WIND       PRES   REMARKS
DECATUR AP     FAIR      35  26  69 CALM      30.28R
HUNTSVILLE AP  FAIR      33  25  72 SE3       30.25R
HUN NWS/UAH      N/A     37  22  54 S2          N/A
MERIDIANVILLE  CLEAR     37  21  52 SE6       30.26R WCI  32
VINEMONT AP    FAIR      35  22  60 SE6       30.26R WCI  30
$$

ALZ008>010-140800-
NORTHEAST ALABAMA

CITY           SKY/WX    TMP DP  RH WIND       PRES   REMARKS
ALBERTVILLE    FAIR      34  21  60 SE5       30.25S WCI  30
FORT PAYNE     FAIR      37  19  49 NE7       30.27F WCI  31
SCOTTSBORO AP  FAIR      39  21  48 VRB5G15   30.27F
$$

TNZ076-096-097-140800-
SOUTHEASTERN MIDDLE TENNESSEE

CITY           SKY/WX    TMP DP  RH WIND       PRES   REMARKS
FAYETTEVILLE   CLEAR     36  21  55 S6        30.23R WCI  31
TULLAHOMA      CLEAR     34  21  60 S5        30.22S WCI  30
WINCHESTER     CLEAR     36  19  51 S10       30.23R WCI  28
$$

...SURROUNDING SITES...

CITY           SKY/WX    TMP DP  RH WIND       PRES   REMARKS
ATLANTA        CLOUDY    35  21  56 E10       30.30F WCI  27
ANNISTON       FAIR      36  24  62 NE8       30.29F WCI  30
BIRMINGHAM     FAIR      41  22  46 SE9       30.27R
CHATTANOOGA    FAIR      33  23  66 S6        30.29F WCI  28
CORINTH        FAIR      32  25  74 CALM      30.24S
DALTON         FAIR      36  21  55 S3        30.31F
GADSDEN        FAIR      30  28  92 NE7       30.29F WCI  23
GOLDEN TRNGL   FAIR      34  31  88 CALM      30.26S
HALEYVILLE     FAIR      33  27  78 CALM      30.27R
JACKSON TN     FAIR      25  21  85 CALM      30.24R
MEMPHIS        CLOUDY    32  24  72 SW3       30.24R
NASHVILLE      MOCLDY    32  22  66 S3        30.24R
OXFORD MS      FAIR      36  23  60 VRB5G14   30.25R WCI  32
ROME           FAIR      30  24  78 CALM      30.30F
SAVANNAH       CLEAR     30  28  93 CALM      30.22F
TUPELO         FAIR      34  27  75 CALM      30.27R
TUSCALOOSA     FAIR      36  31  82 CALM      30.27R
$$




USA.gov is the U.S. government's official web portal to all federal, state and local government web resources and services.